Location: Colle Santa Colomba
(42.0333°N, 12.5667°E)
Time: 21:30:44
(UTC+00:00)

SL-8 R/B - Pass Details

Date: 25 October 2021
Orbit: 656 x 667 km, 48.4° (Epoch: 04 December)

Event Time Altitude Azimuth Distance (km) Brightness Sun altitude
Rises 18:18:30 0° 289° (WNW) 2,986 8.4 -23.9°
Reaches altitude 10° 18:20:59 10° 297° (WNW) 2,075 7.2 -24.4°
Enters shadow 18:25:25 40° 5° (N) 983 4.5 -25.2°
